C/1995 O1 Hale-Bopp 1997 03 31.0802 0.908720 0.994933 130.5601 282.2358 89.4979 -2.0 4.0 P/1996 A1 Jedicke 2014 11 18.8288 4.077199 0.437480 223.6822 248.7745 6.6160 7.0 4.0 P/1996 R2 Lagerkvist 2011 10 16.7361 2.611500 0.311194 333.8966 40.1990 2.6025 11.5 4.0 P/1997 C1 Gehrels 2013 07 10.4345 3.599859 0.471175 211.1716 225.3133 2.8579 8.0 4.0 P/1997 T3 Lagerkvist-Carsenty 2015 05 06.7100 4.229723 0.364846 333.7944 63.1580 4.8472 13.0 2.0 P/1998 U3 Jager 2014 03 14.9123 2.155332 0.647811 180.8152 303.4513 19.0543 6.5 4.0 P/1998 VS24 LINEAR 2008 05 28.5340 3.426315 0.243131 244.8976 159.1511 5.0248 13.0 2.0 P/1999 XN120 Catalina 2008 11 13.4943 3.299361 0.212159 161.6686 285.3516 5.0264 13.5 2.0 C/2002 VQ94 LINEAR 2006 02 06.7041 6.786768 0.964323 99.9741 34.9940 70.6236 9.5 2.0 P/2003 HT15 LINEAR 2013 03 17.4436 2.689980 0.418371 124.1255 81.4488 27.6369 14.0 2.0 P/2003 O2 LINEAR 2012 06 10.7696 1.498937 0.646878 32.8557 344.7411 14.6905 14.5 4.0 P/2003 T12 SOHO 2012 01 26.5364 0.576929 0.775351 217.7062 176.4855 11.3855 17.0 4.0 P/2004 A1 LONEOS 2004 09 02.5343 5.466357 0.311162 21.4891 124.9491 10.5626 6.5 4.0 P/2004 F1 NEAT 2013 02 27.5226 2.416842 0.457245 27.7322 109.5669 18.0792 16.0 2.0 P/2004 FY140 LINEAR 2015 07 10.9692 4.090959 0.169549 239.5368 327.0131 2.1273 12.5 2.0 P/2004 H3 Larsen 2011 11 23.2344 2.450215 0.372599 346.4730 220.9468 25.1285 13.0 4.0 P/2004 R3 LINEAR-NEAT 2011 11 28.4668 2.132496 0.442827 5.5712 318.7245 7.9740 14.5 4.0 P/2004 T1 LINEAR-NEAT 2011 04 24.8198 1.707937 0.507869 336.3974 51.4400 11.0453 12.5 4.0 P/2005 JN Spacewatch 2012 01 05.7504 2.285928 0.347572 153.5341 70.7897 8.8506 14.0 4.0 P/2005 J1 McNaught 2012 01 15.7550 1.537051 0.569808 338.9721 268.8047 31.7344 16.5 4.0 P/2005 JY126 Catalina 2013 06 04.3492 2.128776 0.433116 117.8022 207.8741 20.2466 11.5 4.0 P/2005 K3 McNaught 2012 09 12.7242 1.497204 0.593495 15.6836 351.9635 15.7357 13.5 4.0 P/2005 L1 McNaught 2013 11 25.2886 3.157743 0.207701 149.9020 138.2897 7.7314 9.5 4.0 C/2005 L3 McNaught 2008 01 16.7071 5.588665 1.000997 47.1743 288.8245 139.4155 4.0 4.0 P/2005 RV25 LONEOS-Christensen 2015 10 25.4071 3.589046 0.168159 191.1948 246.8781 9.8972 9.5 4.0 P/2005 S2 Skiff 2006 07 09.6011 6.413133 0.198751 230.5890 161.2032 3.1405 7.5 4.0 P/2005 SB216 LONEOS 2007 02 12.6557 3.798146 0.465047 83.2804 1.6431 24.1023 12.0 2.0 P/2006 F1 Kowalski 2008 02 14.8905 4.123379 0.117749 186.4893 124.7572 21.2752 8.0 4.0 C/2006 OF2 Broughton 2008 09 16.1555 2.434461 1.002387 95.7610 318.4405 30.1144 5.5 4.0 C/2006 Q1 McNaught 2008 07 03.4404 2.756849 0.998080 344.2269 199.5599 59.0571 5.0 4.0 C/2006 S3 LONEOS 2012 04 16.3694 5.131037 1.003403 140.1333 38.3692 166.0328 2.0 4.0 C/2006 W3 Christensen 2009 07 06.7658 3.127618 1.000315 133.5777 113.6221 127.0769 5.0 4.0 C/2007 D1 LINEAR 2007 06 13.3974 8.778750 0.993753 339.8813 171.0654 41.5285 3.5 4.0 C/2007 G1 LINEAR 2008 11 15.7351 2.647931 1.000814 223.9723 79.0291 88.2785 5.5 4.0 P/2007 H1 McNaught 2014 09 02.3424 2.286882 0.377528 202.8590 144.3369 11.8646 10.0 4.0 C/2007 Q3 Siding Spring 2009 10 07.1316 2.249267 0.999560 2.0318 149.3714 65.6637 4.5 4.0 P/2007 R1 Larson 2007 08 26.4260 4.366603 0.277817 175.6676 181.6406 7.8734 8.0 4.0 C/2007 S2 Lemmon 2008 09 12.3518 5.549130 0.556357 210.3086 296.1146 16.8611 6.5 4.0 C/2007 VO53 Spacewatch 2010 04 26.9564 4.843424 1.000996 75.0740 59.7158 86.9992 7.0 4.0 P/2008 CL94 Lemmon 2006 06 18.9489 5.409237 0.120737 80.7817 33.4519 8.3556 8.0 4.0 C/2008 E1 Catalina 2008 08 14.5462 4.829594 0.551250 270.1641 188.9977 35.0254 7.0 4.0 C/2008 E3 Garradd 2008 08 02.7230 5.531692 0.998664 218.1687 105.7413 105.0558 6.0 4.0 C/2008 FK75 Lemmon-Siding Spring 2010 09 29.5358 4.512739 1.001964 80.4775 218.2692 61.1763 5.0 4.0 P/2008 J2 Beshore 2014 08 30.2793 2.363499 0.316379 131.5004 97.7343 10.2991 9.0 4.0 P/2008 O2 McNaught 2009 04 21.6853 3.807890 0.151750 27.5889 325.8627 9.5174 9.0 4.0 C/2008 P1 Garradd 2009 07 23.2307 3.900739 1.001248 11.9551 357.6972 64.3112 7.0 4.0 C/2008 S3 Boattini 2011 06 08.7232 8.018579 1.000709 40.0513 54.9467 162.7057 4.0 4.0 C/2008 T2 Cardinal 2009 06 13.1065 1.201205 0.999651 215.8361 309.6703 56.3597 6.0 4.0 C/2009 F2 McNaught 2009 11 13.2636 5.871350 0.982312 336.2535 214.0582 59.3802 6.0 4.0 C/2009 F4 McNaught 2011 12 31.9248 5.454753 1.001262 260.3875 53.5845 79.3475 3.0 4.0 C/2009 F6 Yi-SWAN 2009 05 07.2515 1.275101 0.997369 129.7839 278.5784 85.7442 6.0 4.0 C/2009 K3 Beshore 2011 01 09.266 3.90156 1.00000 251.413 0.032 146.680 8.5 4.0 C/2009 K5 McNaught 2010 04 29.7317 1.422926 1.000169 66.1572 257.8612 103.8973 7.5 4.0 C/2009 P1 Garradd 2011 12 23.6780 1.550544 1.001038 90.7484 325.9988 106.1769 4.0 4.0 C/2009 P2 Boattini 2010 02 12.9704 6.547108 1.001687 76.3298 60.4638 163.4599 6.0 4.0 C/2009 R1 McNaught 2010 07 02.6785 0.404586 1.000275 130.6929 322.5469 77.0438 8.0 4.0 C/2009 S3 Lemmon 2011 12 11.4919 6.474640 1.001453 129.7815 225.1321 60.3851 6.5 4.0 P/2009 SK280 Spacewatch-Hill 2009 05 26.6397 4.203515 0.119547 328.6419 36.4120 16.8073 11.0 4.0 C/2009 T1 McNaught 2009 10 08.6559 6.225767 0.996584 282.6166 54.4138 89.8913 6.5 4.0 C/2009 U5 Grauer 2010 06 22.3682 6.093746 1.001509 23.8276 121.1267 25.4565 7.0 4.0 C/2009 UG89 Lemmon 2010 12 16.2917 3.930886 1.008551 60.6642 321.0283 130.0966 9.0 4.0 C/2009 W2 Boattini 2010 05 03.4687 6.913402 0.997172 121.5085 199.5944 164.4838 7.0 4.0 C/2009 Y1 Catalina 2011 01 28.8778 2.520822 0.993156 127.3988 160.2817 107.3051 9.0 4.0 C/2010 B1 Cardinal 2011 02 07.1332 2.942013 0.998876 211.5468 277.2086 101.9769 7.5 4.0 C/2010 D3 WISE 2010 09 03.8726 4.246771 0.999681 304.6277 255.2317 76.4128 9.0 4.0 C/2010 D4 WISE 2009 03 30.2313 7.146656 0.888703 44.4626 266.8304 105.6598 6.5 4.0 C/2010 F3 Scotti 2010 08 03.7226 5.444714 0.912726 31.1813 157.3940 4.6472 8.5 4.0 C/2010 FB87 WISE-Garradd 2010 11 07.3239 2.843425 0.990077 265.0336 89.9026 107.6273 10.0 4.0 C/2010 G2 Hill 2011 09 02.0415 1.980547 0.979545 137.4173 246.7826 103.7560 8.0 4.0 C/2010 G3 WISE 2010 04 11.1237 4.907518 0.998631 75.2100 313.7459 108.2500 8.5 4.0 P/2010 H2 Vales 2010 03 07.8208 3.105658 0.192470 129.8170 64.3114 14.2572 6.0 4.0 P/2010 H5 Scotti 2010 04 11.1623 6.023288 0.155515 174.6650 24.8965 14.0882 13.0 2.0 C/2010 J2 McNaught 2010 06 04.0284 3.387423 0.999816 4.6594 311.8215 125.8564 9.0 4.0 P/2010 J5 McNaught 2009 11 02.8683 3.747623 0.086815 149.8739 65.6710 7.3564 10.0 4.0 P/2010 JC81 WISE 2011 04 26.5607 1.811074 0.777368 12.5823 30.7694 38.6900 9.0 4.0 C/2010 KW7 WISE 2010 10 11.2641 2.571659 0.973685 332.3889 104.8326 147.0845 15.0 2.0 C/2010 L3 Catalina 2010 11 10.1353 9.882410 1.001218 121.7515 38.2693 102.6356 4.5 4.0 C/2010 M1 Gibbs 2012 02 07.840 2.29869 1.00000 265.318 82.150 78.373 9.0 4.0 C/2010 R1 LINEAR 2012 05 18.9628 5.621394 1.003687 114.4997 343.6454 156.9341 6.0 4.0 P/2010 R2 La Sagra 2010 06 23.5762 2.619202 0.153719 59.0617 270.6494 21.4173 13.0 4.0 C/2010 S1 LINEAR 2013 05 20.3053 5.900221 1.000625 118.6115 93.4365 125.3352 3.5 4.0 P/2010 T2 PANSTARRS 2011 07 10.7831 3.752845 0.318421 356.1340 59.5943 8.0279 11.5 4.0 P/2010 TO20 LINEAR-Grauer 2008 11 05.2255 5.201784 0.079340 258.0117 44.1711 2.5821 9.0 4.0 P/2010 U1 Boattini 2010 03 24.7956 4.903076 0.257290 88.8513 281.2571 8.2652 9.5 4.0 P/2010 U2 Hill 2010 11 09.4117 2.553738 0.402477 44.2879 357.1526 16.8594 13.0 4.0 C/2010 U3 Boattini 2019 02 26.3523 8.467982 1.001123 87.9092 43.0310 55.4189 1.0 4.0 P/2010 UH55 Spacewatch 2011 05 10.5041 2.768311 0.575471 221.6578 235.2604 8.6624 11.0 4.0 P/2010 V1 Ikeya-Murakami 2010 10 13.0944 1.576500 0.486346 152.2462 3.7943 9.3797 8.0 4.0 P/2010 WK LINEAR 2010 10 19.8282 1.766245 0.692144 40.8976 11.4932 11.4771 14.5 2.0 C/2010 X1 Elenin 2011 09 10.7351 0.482206 0.999970 343.8426 323.1697 1.8396 10.0 4.0 C/2011 A3 Gibbs 2011 12 16.0818 2.344863 0.997701 141.1623 124.8898 26.0760 10.0 4.0 P/2011 C2 Gibbs 2012 01 07.6340 5.388580 0.269017 160.5374 12.2043 10.9096 9.0 4.0 C/2011 F1 LINEAR 2013 01 08.0274 1.818765 1.000038 192.5675 85.1185 56.6107 5.0 4.0 C/2011 G1 McNaught 2011 09 16.4208 2.155254 1.000936 354.5569 152.5920 162.2337 12.0 4.0 C/2011 J2 LINEAR 2013 12 25.2466 3.445219 1.000402 85.2458 163.9439 122.8096 6.0 4.0 P/2011 JB15 Spacewatch-Boattini 2012 01 21.0194 5.019191 0.318023 110.8708 153.7535 19.1424 9.0 4.0 C/2011 L1 McNaught 2010 12 18.2853 2.241790 0.796789 294.4502 252.3666 65.5206 11.0 4.0 C/2011 L2 McNaught 2011 11 01.2726 1.943488 1.001792 257.0296 131.3505 104.2570 12.5 4.0 C/2011 L3 McNaught 2011 08 10.5020 1.923901 0.999987 27.7309 307.7577 87.1144 12.5 4.0 C/2011 L4 PANSTARRS 2013 03 10.1621 0.301588 1.000060 333.6441 65.6654 84.1986 5.5 4.0 C/2011 M1 LINEAR 2011 09 07.5791 0.895651 1.002430 119.5845 324.7904 70.1797 12.0 4.0 P/2011 N1 ASH 2012 05 31.1988 2.857934 0.546227 331.0400 77.6838 35.6715 11.5 4.0 C/2011 N2 McNaught 2011 10 18.7332 2.563299 0.999281 357.0387 274.0198 33.6776 11.5 4.0 C/2011 O1 LINEAR 2012 08 18.4640 3.890543 0.997048 232.3842 89.8147 76.4961 7.0 4.0 P/2011 P1 McNaught 2010 07 17.7352 4.975204 0.342221 344.6909 7.4738 5.8393 9.0 4.0 C/2011 P2 PANSTARRS 2010 09 12.6342 6.146991 0.369982 76.3228 204.0097 8.9899 8.5 4.0 C/2011 Q2 McNaught 2012 01 19.7947 1.349615 1.000000 34.6288 287.3685 36.8670 10.0 4.0 P/2011 Q3 McNaught 2011 08 14.3226 2.367437 0.532347 310.2160 35.3177 6.0504 13.5 4.0 C/2011 Q4 SWAN 2011 09 21.0774 1.112110 0.974050 1.8751 252.0886 147.8435 12.5 4.0 C/2011 R1 McNaught 2012 10 19.6169 2.079681 1.000572 308.8573 221.4079 116.1968 6.5 4.0 P/2011 R3 Novichonok-Gerke 2012 04 02.9653 3.557918 0.267049 225.1677 190.6211 19.2442 11.0 4.0 C/2011 S2 Kowalski 2011 10 26.3522 1.115130 0.931657 192.1959 288.0667 17.5724 15.5 4.0 P/2011 U1 PANSTARRS 2012 06 20.6359 2.356191 0.417754 353.1366 135.0078 15.2426 14.5 4.0 P/2011 U2 Bressi 2012 05 06.9441 4.837431 0.112941 157.6011 266.7739 9.6017 10.0 4.0 C/2011 U3 PANSTARRS 2012 06 03.9296 1.071370 1.000052 287.8395 228.3797 116.7800 14.0 4.0 P/2011 UA134 Spacewatch-PANSTARR 2011 12 07.1964 2.051428 0.632423 32.3261 40.6362 10.5385 17.5 4.0 C/2011 UF305 LINEAR 2012 07 22.1547 2.138225 1.000637 121.9892 297.4350 93.9603 9.0 4.0 P/2011 VJ5 Lemmon 2011 12 08.7004 1.505907 0.555652 315.1262 169.9789 3.9721 17.5 4.0 P/2011 W1 PANSTARRS 2012 01 23.5641 3.310933 0.288734 282.6680 161.8839 3.7183 11.5 4.0 P/2011 W2 Rinner 2011 11 06.2220 2.303108 0.393708 221.0702 232.0174 13.7739 13.0 4.0 C/2011 W3 Lovejoy 2011 12 16.0113 0.005557 0.999928 53.6274 326.5407 134.4136 14.5 4.0 P/2011 Y2 Boattini 2012 03 21.6913 1.787188 0.712729 131.1924 310.0093 6.3517 15.0 4.0 C/2011 Y3 Boattini 2011 08 26.5540 3.495488 0.701036 341.3639 84.7844 26.3662 8.0 4.0 C/2012 A1 PANSTARRS 2013 12 03.8590 7.581394 1.000000 192.1465 278.0178 120.8345 6.0 4.0 C/2012 A2 LINEAR 2012 11 04.8521 3.535353 1.000000 101.7071 191.4282 125.8839 8.5 4.0 P/2012 B1 PANSTARRS 2013 07 20.3347 3.809343 0.415867 162.3908 36.0535 7.6257 9.0 4.0 9P Tempel 2011 01 12.4399 1.512570 0.516333 179.0726 68.8819 10.5247 5.5 10.0 10P Tempel 2010 07 04.7018 1.421726 0.536238 195.5932 117.8016 12.0246 5.0 10.0 17P Holmes 2014 03 27.2555 2.055545 0.432387 24.4805 326.8038 19.0919 10.0 6.0 21P Giacobini-Zinner 2012 02 11.7324 1.030484 0.707054 172.6022 195.3970 31.9105 9.0 6.0 27P Crommelin 2011 08 03.8171 0.747948 0.918822 195.9920 250.6336 28.9585 12.0 8.0 29P Schwassmann-Wachmann 2019 04 08.3700 5.734351 0.043971 50.4735 312.5717 9.3791 4.0 4.0 30P Reinmuth 2010 04 19.6134 1.881970 0.501413 13.1574 119.7312 8.1246 9.5 6.0 31P Schwassmann-Wachmann 2010 09 29.7124 3.423909 0.193565 17.9709 114.1690 4.5460 5.0 8.0 36P Whipple 2011 12 29.2521 3.087774 0.261484 201.5426 182.3752 9.9262 8.5 6.0 37P Forbes 2011 12 11.0267 1.575315 0.540664 329.3894 315.0309 8.9559 10.5 4.8 41P Tuttle-Giacobini-Kresak 2011 11 12.1468 1.049404 0.660196 62.1704 141.0618 9.2252 10.0 16.0 43P Wolf-Harrington 2010 07 01.9327 1.357234 0.594830 191.5094 249.8741 15.9727 8.0 6.0 45P Honda-Mrkos-Pajdusakova 2011 09 28.7827 0.529704 0.824658 326.2530 89.0030 4.2523 13.5 8.0 47P Ashbrook-Jackson 2009 02 01.1971 2.805573 0.318344 357.9116 356.9952 13.0494 1.0 11.2 48P Johnson 2011 09 29.3987 2.301226 0.367917 207.9938 117.2635 13.6612 10.0 6.0 49P Arend-Rigaux 2011 10 19.0858 1.423884 0.600364 332.7978 118.8746 19.0497 11.3 4.4 60P Tsuchinshan 2012 05 13.5172 1.618168 0.538514 216.3774 267.6840 3.6105 11.5 6.0 62P Tsuchinshan 2011 06 30.4153 1.383587 0.597594 30.2431 90.3032 9.7132 8.0 10.0 65P Gunn 2010 03 09.0233 2.458436 0.321476 198.8081 67.8776 10.4793 5.0 6.0 69P Taylor 2011 07 17.5688 2.272907 0.414468 343.4548 104.8780 22.0460 9.5 12.0 71P Clark 2011 12 15.9046 1.567473 0.498445 208.8225 59.6079 9.4812 9.8 6.0 73P Schwassmann-Wachmann 2011 10 16.8988 0.942870 0.692248 198.8732 69.8424 11.3793 11.5 6.0 74P Smirnova-Chernykh 2009 07 26.9842 3.552746 0.147426 86.6846 77.0819 6.6508 5.0 6.0 77P Longmore 2009 07 06.9280 2.324685 0.355692 197.0732 14.9210 24.3806 7.0 8.0 78P Gehrels 2012 01 12.8628 2.008540 0.462750 192.7768 210.5585 6.2552 5.5 8.0 81P Wild 2010 02 22.4793 1.597589 0.537086 41.7329 136.0993 3.2376 7.0 6.0 82P Gehrels 2010 01 13.5258 3.633049 0.123311 226.5374 239.4115 1.1267 5.0 8.0 88P Howell 2009 10 12.0049 1.362835 0.561834 235.8714 56.7476 4.3826 11.0 6.0 91P Russell 2013 03 01.4082 2.616388 0.328834 354.7068 247.8741 14.0753 7.5 6.0 97P Metcalf-Brewington 2011 08 20.8775 2.596662 0.458751 228.2016 185.2008 17.8855 5.5 6.0 105P Singer Brewster 2012 02 26.1574 2.050860 0.409270 46.6702 192.4185 9.1706 11.5 6.0 111P Helin-Roman-Crockett 2013 02 07.5224 3.698262 0.115424 4.4768 89.9430 4.2090 5.0 8.0 115P Maury 2011 10 06.9687 2.035131 0.520948 120.0736 176.6026 11.7059 10.5 6.0 116P Wild 2009 07 17.9249 2.180526 0.373199 173.6454 21.0470 3.6119 2.5 10.0 117P Helin-Roman-Alu 2014 03 28.0900 3.053588 0.253847 222.9078 58.8974 8.6991 2.5 8.0 119P Parker-Hartley 2014 04 02.1361 3.028759 0.292059 181.1703 244.0995 5.1960 3.5 8.0 120P Mueller 2013 02 22.3640 2.729357 0.338598 30.0850 4.4527 8.7977 12.0 4.0 123P West-Hartley 2011 07 04.4830 2.128786 0.448584 102.8221 46.5984 15.3572 4.0 10.0 125P Spacewatch 2013 02 17.0266 1.525470 0.512150 87.2403 153.1906 9.9863 13.0 6.0 128P-B Shoemaker-Holt 2007 06 16.2445 3.056194 0.321887 210.3580 214.3654 4.3644 8.5 4.0 129P Shoemaker-Levy 2014 01 21.4191 3.886746 0.108212 305.4152 187.2454 3.5028 11.0 4.0 130P McNaught-Hughes 2011 06 24.9977 2.098291 0.407357 224.4565 89.7896 7.3083 10.0 6.0 131P Mueller 2012 01 07.2382 2.418005 0.343929 179.4806 214.2186 7.3559 11.0 4.0 133P Elst-Pizarro 2013 02 09.0792 2.649736 0.161803 132.1895 160.1535 1.3868 15.4 2.0 139P Vaisala-Oterma 2008 04 22.0515 3.404596 0.247606 165.9956 242.2977 2.3313 9.5 4.0 142P Ge-Wang 2010 05 29.8214 2.487652 0.498739 175.5943 176.5156 12.3067 8.5 6.0 143P Kowal-Mrkos 2009 06 11.5446 2.542784 0.408627 320.8714 245.3285 4.6893 13.5 2.0 152P Helin-Lawrence 2012 07 09.2910 3.116417 0.307416 163.8109 91.9115 9.8670 11.5 4.0 157P Tritton 2010 02 20.8287 1.358681 0.601633 148.7935 300.0475 7.2797 10.0 4.0 158P Kowal-LINEAR 2012 09 22.9691 4.576599 0.030449 232.3831 137.3083 7.9079 9.0 4.0 160P LINEAR 2012 09 18.4866 2.066624 0.479115 18.1823 337.0028 17.2755 15.5 2.0 162P Siding Spring 2010 03 08.5114 1.234493 0.595914 356.3826 31.2344 27.8170 12.0 4.0 163P NEAT 2012 04 12.7500 2.056678 0.453464 349.6364 102.1180 12.7168 14.5 4.0 164P Christensen 2011 06 02.3633 1.675617 0.541283 325.8688 88.3247 16.2608 11.0 4.0 166P NEAT 2002 05 24.2686 8.571168 0.382741 322.0842 64.3619 15.3604 5.5 4.0 167P CINEOS 2001 05 09.7229 11.837502 0.271397 344.6641 295.8565 19.1000 9.5 2.0 171P Spahr 2012 04 30.5203 1.764633 0.503326 347.0827 101.7210 21.9481 13.5 4.0 173P Mueller 2008 05 15.7010 4.203542 0.261390 29.3933 100.4957 16.5059 7.5 4.0 174P Echeclus 2015 04 22.2624 5.815664 0.457106 162.9001 173.3916 4.3415 9.4 2.0 176P LINEAR 2011 06 29.8687 2.575532 0.193893 35.7092 346.0712 0.2348 15.1 2.0 182P LONEOS 2012 03 05.4458 1.008530 0.659456 53.7617 72.8683 16.2493 18.0 4.0 183P Korlevic-Juric 2008 05 03.4331 3.888016 0.134960 160.9001 5.8430 18.7389 12.5 2.0 186P Garradd 2008 05 27.9657 4.328669 0.125925 287.4906 327.4976 28.5142 7.5 4.0 187P LINEAR 2008 10 28.1513 3.752293 0.169509 136.8504 111.1942 13.6302 9.0 4.0 195P Hill 2009 01 20.3116 4.433857 0.315378 249.4930 243.1926 36.3902 8.5 4.0 197P LINEAR 2013 03 24.8998 1.061639 0.629583 188.7473 66.3895 25.5423 16.5 2.0 198P ODAS 2012 02 15.7802 1.996592 0.444825 69.0749 358.4913 1.3412 12.5 4.0 200P Larsen 2008 08 26.2764 3.280490 0.333109 134.1208 234.7752 12.1146 9.0 4.0 203P Korlevic 2010 02 09.1406 3.183231 0.316072 154.7497 290.5130 2.9738 14.5 2.0 213P Van Ness 2011 06 16.4833 2.122742 0.380247 3.4408 312.6274 10.2362 10.5 4.0 215P NEAT 2010 06 17.5079 3.222209 0.205489 224.3804 75.1146 12.8354 11.0 4.0 219P LINEAR 2010 03 04.9058 2.363899 0.352330 107.6047 231.0283 11.5292 11.0 4.0 223P Skiff 2010 08 14.5513 2.421376 0.416336 37.8924 346.8286 27.0515 12.0 4.0 228P LINEAR 2011 08 23.9416 3.430476 0.177562 114.8059 31.0683 7.9151 14.5 2.0 231P LINEAR-NEAT 2011 05 16.4627 3.032488 0.246785 42.4327 133.0844 12.3253 14.5 2.0 237P LINEAR 2009 12 06.0204 2.386903 0.359567 20.9278 251.6609 16.4510 14.5 2.0 238P Read 2011 03 10.0764 2.359881 0.253660 325.1383 51.6379 1.2655 14.5 4.0 240P NEAT 2010 10 04.4774 2.124721 0.450202 352.0178 74.9615 23.5219 12.0 4.0 242P Spahr 2012 04 03.5456 3.979926 0.279123 247.6717 180.7829 32.4850 8.0 4.0 243P NEAT 2011 03 02.7210 2.455193 0.359128 283.7787 87.6721 7.6396 12.5 4.0 244P Scotti 2012 01 20.4255 3.918208 0.199781 92.6123 354.1532 2.2591 9.0 4.0 246P NEAT 2013 01 28.9622 2.879374 0.285035 176.2454 78.7840 15.9710 10.5 4.0 248P Gibbs 2011 02 08.8062 2.147574 0.640446 209.9547 207.7838 6.3703 14.0 4.0 253P PANSTARRS 2011 11 24.0413 2.039334 0.412863 230.9830 146.9211 4.9386 14.5 4.0 254P McNaught 2010 10 25.5918 3.214070 0.312905 220.6993 129.9503 32.5176 11.0 4.0 255P Levy 2012 01 14.9440 1.007477 0.668271 179.6328 279.7444 18.2646 20.0 4.0